Regional Weather Roundup
Issued by NWS New Orleans/Baton Rouge, LA

Home | Current Version | Previous Version | Graphics & Text | Print | Product List | Glossary On
Versions: 1 2 3 4 5 6 7 8 9 10 11 12 13 14 15 16 17 18 19 20 21 22 23 24 25 26 27 28 29 30 31 32 33 34 35 36 37 38 39 40 41 42 43 44 45 46 47 48 49 50
513
ASUS44 KLIX 281910
RWRLIX
NEW ORLEANS REGIONAL WEATHER ROUNDUP
NATIONAL WEATHER SERVICE NEW ORLEANS LA
200 PM CDT THU AUG 28 2014

NOTE: "FAIR" INDICATES FEW OR NO CLOUDS BELOW 12,000 FEET WITH NO
      SIGNIFICANT WEATHER AND/OR OBSTRUCTIONS TO VISIBILITY.
      SKY/WX - SKY CONDITION AND SIGNIFICANT WEATHER.
      TMP - AIR TEMPERATURE.     DP    - DEWPOINT TEMPERATURE.
      RH  - RELATIVE HUMIDITY.   PRES  - PRESSURE.
      HI  - HEAT INDEX.          WCI   - WIND CHILL INDEX.

*  THESE STATIONS ARE NOT NWS OR FAA STATIONS AND ARE NOT UNDER
   NWS QUALITY CONTROL.

LAZ038-040-048-061>063-065>067-069-282000-
SOUTHEAST LOUISIANA

CITY           SKY/WX    TMP DP  RH WIND       PRES   REMARKS
N.O. AUDUBON     N/A     91  72  54 MISG        N/A  HX  98
N.O. INTL ARPT PTSUNNY   92  69  47 S9        29.97F HX  97
N.O. LAKEFRONT CLOUDY    87  74  64 E13       29.98F HX  95
N.O. DOWNTOWN* MOCLDY    91  70  49 NE7       29.98F HX  97
SLIDELL        PTSUNNY   89  73  59 VRB5      29.97F HX  97
BATON ROUGE    PTSUNNY   87  73  62 E8        29.97F
BOOTHVILLE     MOSUNNY   88  73  61 E9        29.98F HX  95
BELLE CHASSE   PTSUNNY   90  70  51 SE9       29.97F HX  95
BOGALUSA*        N/A     92  65  41 S3        29.99F
GALLIANO*      NOT AVBL
NEW ROADS*       N/A     90  71  54 SE7       29.97F HX  96
GONZALES*        N/A     90  72  54 E7        29.96F HX  97
HAMMOND*       MOSUNNY   93  68  43 E7        29.99F HX  97
HOUMA*         MOSUNNY   91  70  49 SE9       29.97S HX  97
PORT FOURCHON* PTCLDY    88  73  62 E13       29.98F HX  96

$$

MSZ070-080>082-282000-
SOUTHERN MISSISSIPPI

CITY           SKY/WX    TMP DP  RH WIND       PRES   REMARKS
MCCOMB         CLOUDY    82  70  66 N10       30.00F
GULFPORT       PTSUNNY   89  70  53 SE13      29.98F
BILOXI         PTSUNNY   90  73  57 SE9       29.99F HX  98
PASCAGOULA     CLOUDY    76  73  91 SW5       29.99F
STENNIS ARPT*  MOSUNNY  N/A N/A N/A E7        29.99F

$$

COASTAL OBSERVATIONS
LAKE AND NEARSHORE STATIONS

STATION/POSITION TIME  TEMP    WIND        PRES    WAVE
                       AIR SEA DIR/SP/G            HT/PER
                 (UTC) (F)     (DEG/KT/KT) (MB)    (FT/S)
PASCAGOULA       1900   84     210/  4/  5 1015.2
WAVELAND YACHT   1900   84     150/ 10/ 12 1015.0
GRAND ISLE       1900   89 84  100/  7/ 11 1015.4
SOUTHWEST PASS   1900   92 89   90/ 16/ 18 1015.0
NEW CANAL        1900   86 85   70/  9/ 12 1015.4
SHELL BEACH      1900   86 81  100/  9/ 13 1014.9

OFFSHORE STATIONS

STATION/POSITION TIME  TEMP    WIND        PRES    WAVE
                       AIR SEA DIR/SP/G            HT/PER
                 (UTC) (F)     (DEG/KT/KT) (MB)    (FT/S)
64 S DAUPHIN ISL 1830   85 86   70/ 12/ 14 1015.4

$$




USA.gov is the U.S. government's official web portal to all federal, state and local government web resources and services.